Regional Weather Roundup
Issued by NWS

Home | Current Version | Previous Version | Text Only | Print | Product List | Glossary Off
Versions: 1 2 3 4 5 6 7 8 9 10 11 12 13 14 15 16 17 18 19 20 21 22 23 24 25 26 27 28 29 30 31 32 33 34 35 36 37 38 39 40 41 42 43 44 45 46 47 48 49 50

000
ASUS43 KDMX 010707
RWRIA

WEATHER ROUNDUP FOR IOWA
NATIONAL WEATHER SERVICE DES MOINES IA
200 AM CDT WED APR 01 2015

NOTE: "FAIR" INDICATES FEW OR NO CLOUDS BELOW 12,000 FEET WITH NO
SIGNIFICANT WEATHER AND/OR OBSTRUCTIONS TO VISIBILITY.

* - THESE STATIONS ARE NOT NWS STATIONS...THUS NOT UNDER NWS
QUALITY CONTROL.  THEY ALSO DO NOT REPORT WEATHER SUCH
AS PRECIPITATION OR FOG.

IAZ001>003-012>014-020>022-031>034-043>046-010800-
   NORTHWEST IOWA

CITY           SKY/WX    TMP DP  RH WIND       PRES   REMARKS
CARROLL *      MOCLDY    50  32  50 S13       29.84F
CHEROKEE *     CLEAR     52  32  46 S8        29.80F
DENISON *      PTCLDY    55  30  38 S16G23    29.81F
LE MARS *      CLEAR     54  32  43 S8        29.78F
ORANGE CITY *  CLEAR     54  30  40 S10       29.78F
SHELDON *      CLEAR     52  32  46 S13       29.77S
SIOUX CITY     CLEAR     57  31  37 S10       29.78F
SPENCER        CLEAR     47  33  58 S9        29.80F
STORM LAKE *   CLEAR     48  32  53 S14       29.82F
$$

IAZ055>058-069>071-079>083-090>094-010800-
   SOUTHWEST IOWA

CITY           SKY/WX    TMP DP  RH WIND       PRES   REMARKS
ATLANTIC *     PTCLDY    55  32  41 S10       29.86F
AUDUBON *      CLEAR     46  34  61 SE3       29.86F
CLARINDA *     CLEAR     46  34  61 S5        29.89F
COUNCIL BLFS * PTCLDY    57  32  38 S12       29.85S
CRESTON *      CLEAR     54  32  43 S12       29.90F
HARLAN  *      CLEAR     52  32  46 S7        29.88F
LAMONI         CLEAR     55  32  41 S7        29.91F
RED OAK *      PTCLDY    52  34  50 S8        29.87F
SHENANDOAH *   CLEAR     55  34  44 SE12      29.87S
$$

IAZ047>049-059>061-072>074-084-010800-
   CENTRAL IOWA

CITY           SKY/WX    TMP DP  RH WIND       PRES   REMARKS
AMES           CLEAR     52  33  48 S9        29.87F
ANKENY *       CLEAR     52  34  50 S8        29.89F
CHARITON *     CLEAR     54  34  47 S12       29.91S
DES MOINES     CLEAR     54  33  45 S8        29.89F
GRINNELL*      CLEAR     48  32  53 SE9       29.91S
KNOXVILLE *    CLEAR     55  32  41 S5        29.90S
MARSHALLTOWN   CLEAR     46  32  58 SE8       29.89S
PELLA *        CLEAR     50  37  62 S8        29.92S
PERRY *          N/A     48  34  57 S9        29.86F
$$

IAZ004>006-015-016-023>025-035-036-010800-
   NORTH CENTRAL IOWA

CITY           SKY/WX    TMP DP  RH WIND       PRES   REMARKS
ALGONA *       CLEAR     52  34  50 S14       29.83F
CLARION *      CLEAR     48  34  57 S13       29.85F
ESTHERVILLE    CLEAR     42  31  64 S7        29.80F
FORT DODGE *   CLEAR     55  30  38 S8        29.85F
MASON CITY     CLEAR     42  32  67 SE7       29.88F
FOREST CITY *  CLEAR     41  32  70 SE5       29.86S
IOWA FALLS *     N/A     45  34  65 SE8       29.88F
$$

IAZ007>011-017>019-026>030-037>042-050>054-066-010800-
   NORTHEAST IOWA

CITY           SKY/WX    TMP DP  RH WIND       PRES   REMARKS
CEDAR RAPIDS   PTCLDY    46  32  58 SE7       29.92S
CHARLES CITY * CLEAR     46  34  61 SE9       29.90S
CLINTON *      CLEAR     36  28  75 E5        29.97S WCI  32
DECORAH *      MOCLDY    45  34  65 CALM      29.90F
DUBUQUE        CLEAR     40  29  64 S3        29.94S
MONTICELLO *   CLEAR     36  32  87 CALM      29.93S
OELWEIN *      CLEAR     45  34  65 SE9       29.92S
WATERLOO       CLEAR     42  33  70 SE5       29.90S
$$

IAZ064-065-067-068-078-010800-
   EAST CENTRAL IOWA

CITY           SKY/WX    TMP DP  RH WIND       PRES   REMARKS
DAVENPORT      CLEAR     43  28  55 S7        29.94F
IOWA CITY      CLEAR     40  32  73 CALM      29.94F
MT. PLEASANT * CLEAR     46  32  57 S6        29.94F
MUSCATINE *    CLEAR     39  32  75 CALM      29.95S
QUAD CITIES    CLEAR     39  31  72 CALM      29.93F
$$

IAZ062-063-075>077-085>089-095>099-010800-
   SOUTHEAST IOWA

CITY           SKY/WX    TMP DP  RH WIND       PRES   REMARKS
BURLINGTON     CLEAR     50  32  50 S5        29.94F
FAIRFIELD *    CLEAR     52  30  43 S7        29.93F
FORT MADISON * CLEAR     54  32  43 S6        29.96S
KEOKUK *       CLEAR     50  34  53 S3        29.95S
OSKALOOSA *      N/A     43  32  65 S10       29.92F
CENTERVILLE *  CLEAR     48  34  57 S7        29.94F
OTTUMWA        CLEAR     48  33  56 S10       29.92F
WASHINGTON *   CLEAR     48  32  53 S9        29.93F
$$

ABBREVIATIONS USED IN REMARKS
   TC - TEMPERATURES IN CELSIUS
  WCI - WIND CHILL INDEX
   HX - HEAT INDEX
  VSB - VISIBILITY
$$



USA.gov is the U.S. government's official web portal to all federal, state and local government web resources and services.